Warrensburg, MO

9:45 PM CDT on May 26, 2017 (GMT -0500)
Skyhaven

Weather History for KRCM - December, 2013

Change the Weather History Date:

Monday, December 23, 2013

  Actual Average (KSZL) Record (KSZL)
Temperature  
Mean Temperature 10 °F -  
Max Temperature 15 °F 37 °F 65 °F (2015)
Min Temperature 5 °F 20 °F 3 °F (2004)
Degree Days  
Heating Degree Days 55    
Moisture  
Dew Point 6 °F    
Average Humidity 79    
Maximum Humidity 86    
Minimum Humidity 67    
Precipitation  
Precipitation 0.00 in - - ()
Sea Level Pressure  
Sea Level Pressure 30.55 in    
Wind  
Wind Speed 4 mph (NW)    
Max Wind Speed 9 mph    
Max Gust Speed -    
Visibility 10 miles    
Events Snow    
Averages and records for this station are not official NWS values.
T = Trace of Precipitation, MM = Missing Value Source: NWS Daily Summary

Daily Weather History Graph

Daily Weather History Graph

Search for Another Location

Airport or City:

Trip Planner

Search our weather history database for the weather conditions in past years. The results will help you decide how hot, cold, wet, or windy it might be!

Date:

Astronomy

Dec. 23, 2013 Rise Set
Actual Time 7:30 AM CST 4:58 PM CST
Civil Twilight 7:00 AM CST 5:28 PM CST
Nautical Twilight 6:27 AM CST 6:01 PM CST
Astronomical Twilight 5:55 AM CST 6:33 PM CST
Moon 11:05 PM CST (12/23) 10:59 AM CST (12/23)
Length of Visible Light 10h 27m
Length of Day
9h 27m
Waning Gibbous, 68% of the Moon is Illuminated
Dec 23
Waning Gibbous
Dec 25
Last Quarter
Jan 1
New
Jan 7
First Quarter
Jan 15
Full

Hourly Weather History & Observations

Time (CST) Temp. Windchill Dew Point Humidity Pressure Visibility Wind Dir Wind Speed Gust Speed Precip Events Conditions
12:15 AM 14.0 °F 8.2 °F 10.4 °F 86% 30.38 in 10.0 mi West 3.5 mph - N/A   Clear
12:35 AM 14.0 °F 8.2 °F 10.4 °F 86% 30.38 in 10.0 mi West 3.5 mph - N/A   Clear
12:55 AM 14.0 °F 8.2 °F 10.4 °F 86% 30.38 in 10.0 mi West 3.5 mph - N/A   Clear
1:15 AM 14.0 °F 8.2 °F 10.4 °F 86% 30.38 in 10.0 mi West 3.5 mph - N/A   Clear
1:35 AM 14.0 °F - 10.4 °F 86% 30.38 in 10.0 mi Calm Calm - N/A   Clear
1:55 AM 14.0 °F - 10.4 °F 86% 30.39 in 10.0 mi Calm Calm - N/A   Clear
2:15 AM 14.0 °F 6.5 °F 10.4 °F 86% 30.40 in 10.0 mi West 4.6 mph - N/A   Clear
2:35 AM 14.0 °F 6.5 °F 10.4 °F 86% 30.41 in 10.0 mi WNW 4.6 mph - N/A   Clear
2:55 AM 12.2 °F 2.9 °F 8.6 °F 85% 30.42 in 10.0 mi WNW 5.8 mph - N/A   Clear
3:15 AM 12.2 °F 1.7 °F 8.6 °F 85% 30.44 in 10.0 mi NW 6.9 mph - N/A   Clear
3:35 AM 12.2 °F 4.3 °F 8.6 °F 85% 30.44 in 10.0 mi WNW 4.6 mph - N/A   Clear
3:55 AM 12.2 °F 6.1 °F 8.6 °F 85% 30.45 in 10.0 mi NW 3.5 mph - N/A   Clear
4:15 AM 12.2 °F 4.3 °F 6.8 °F 79% 30.45 in 10.0 mi NW 4.6 mph - N/A   Clear
4:35 AM 12.2 °F 2.9 °F 5.0 °F 73% 30.45 in 10.0 mi NW 5.8 mph - N/A   Clear
4:55 AM 10.4 °F 4.0 °F 5.0 °F 79% 30.45 in 10.0 mi NNW 3.5 mph - N/A   Clear
5:15 AM 10.4 °F 4.0 °F 5.0 °F 79% 30.47 in 10.0 mi NNW 3.5 mph - N/A   Scattered Clouds
5:35 AM 10.4 °F - 5.0 °F 79% 30.47 in 10.0 mi Calm Calm - N/A   Scattered Clouds
5:55 AM 10.4 °F 0.8 °F 5.0 °F 79% 30.48 in 10.0 mi WNW 5.8 mph - N/A   Mostly Cloudy
6:15 AM 10.4 °F -0.4 °F 5.0 °F 79% 30.50 in 10.0 mi NW 6.9 mph - N/A   Overcast
6:35 AM 10.4 °F -2.4 °F 5.0 °F 79% 30.50 in 10.0 mi NNW 9.2 mph - N/A   Overcast
6:55 AM 10.4 °F -2.4 °F 5.0 °F 79% 30.52 in 10.0 mi NW 9.2 mph - N/A   Overcast
7:15 AM 10.4 °F -1.5 °F 5.0 °F 79% 30.53 in 10.0 mi NNW 8.1 mph - N/A   Overcast
7:55 AM 10.4 °F -1.5 °F 3.2 °F 73% 30.54 in 10.0 mi NW 8.1 mph - N/A   Mostly Cloudy
8:15 AM 10.4 °F -0.4 °F 5.0 °F 79% 30.55 in 10.0 mi NW 6.9 mph - N/A   Overcast
8:35 AM 10.4 °F 2.2 °F 5.0 °F 79% 30.56 in 10.0 mi NW 4.6 mph - N/A   Scattered Clouds
8:55 AM 12.2 °F 4.3 °F 5.0 °F 73% 30.57 in 10.0 mi NNW 4.6 mph - N/A   Scattered Clouds
9:15 AM 12.2 °F 4.3 °F 5.0 °F 73% 30.59 in 10.0 mi NW 4.6 mph - N/A   Scattered Clouds
9:35 AM 12.2 °F 2.9 °F 5.0 °F 73% 30.60 in 10.0 mi NNW 5.8 mph - N/A   Mostly Cloudy
9:55 AM 12.2 °F 2.9 °F 5.0 °F 73% 30.61 in 10.0 mi NNW 5.8 mph - N/A   Scattered Clouds
10:15 AM 14.0 °F 6.5 °F 5.0 °F 67% 30.61 in 10.0 mi NW 4.6 mph - N/A   Mostly Cloudy
10:35 AM 12.2 °F 2.9 °F 5.0 °F 73% 30.62 in 10.0 mi WNW 5.8 mph - N/A   Mostly Cloudy
10:55 AM 14.0 °F 3.9 °F 6.8 °F 73% 30.62 in 10.0 mi WNW 6.9 mph - N/A   Mostly Cloudy
11:15 AM 14.0 °F 5.1 °F 6.8 °F 73% 30.62 in 10.0 mi WNW 5.8 mph - N/A   Scattered Clouds
11:35 AM 14.0 °F 5.1 °F 6.8 °F 73% 30.60 in 7.0 mi West 5.8 mph - N/A Snow Light Snow
11:55 AM 14.0 °F 3.9 °F 8.6 °F 79% 30.60 in 7.0 mi WNW 6.9 mph - N/A Snow Light Snow
12:15 PM 14.0 °F 5.1 °F 8.6 °F 79% 30.59 in 4.0 mi West 5.8 mph - N/A Snow Light Snow
12:35 PM 14.0 °F 5.1 °F 8.6 °F 79% 30.58 in 10.0 mi NW 5.8 mph - N/A Snow Light Snow
1:35 PM 14.0 °F 6.5 °F 8.6 °F 79% 30.57 in 10.0 mi WNW 4.6 mph - N/A   Overcast
1:55 PM 14.0 °F 2.0 °F 8.6 °F 79% 30.57 in 10.0 mi NW 9.2 mph - N/A   Overcast
2:15 PM 14.0 °F 3.9 °F 8.6 °F 79% 30.58 in 10.0 mi NW 6.9 mph - N/A   Overcast
2:35 PM 14.0 °F 5.1 °F 8.6 °F 79% 30.57 in 10.0 mi WNW 5.8 mph - N/A   Overcast
2:55 PM 14.0 °F 6.5 °F 8.6 °F 79% 30.57 in 7.0 mi NW 4.6 mph - N/A Snow Light Snow
3:15 PM 15.8 °F 8.6 °F 8.6 °F 73% 30.57 in 7.0 mi NW 4.6 mph - N/A Snow Light Snow
3:35 PM 14.0 °F 6.5 °F 8.6 °F 79% 30.58 in 10.0 mi WNW 4.6 mph - N/A Snow Light Snow
3:55 PM 14.0 °F 5.1 °F 8.6 °F 79% 30.58 in 10.0 mi NW 5.8 mph - N/A   Scattered Clouds
4:15 PM 14.0 °F 8.2 °F 8.6 °F 79% 30.58 in 10.0 mi WNW 3.5 mph - N/A   Scattered Clouds
4:35 PM 12.2 °F 6.1 °F 8.6 °F 85% 30.59 in 10.0 mi WNW 3.5 mph - N/A   Scattered Clouds
4:55 PM 12.2 °F - 6.8 °F 79% 30.59 in 10.0 mi Calm Calm - N/A   Scattered Clouds
5:15 PM 12.2 °F - 6.8 °F 79% 30.60 in 10.0 mi Calm Calm - N/A Snow Light Snow
5:35 PM 12.2 °F - 6.8 °F 79% 30.60 in 10.0 mi Calm Calm - N/A Snow Light Snow
5:55 PM 12.2 °F - 5.0 °F 73% 30.60 in 10.0 mi Calm Calm - N/A   Scattered Clouds
6:15 PM 10.4 °F 4.0 °F 5.0 °F 79% 30.60 in 10.0 mi NW 3.5 mph - N/A   Clear
6:35 PM 10.4 °F 4.0 °F 5.0 °F 79% 30.60 in 10.0 mi WNW 3.5 mph - N/A   Clear
6:55 PM 10.4 °F 4.0 °F 5.0 °F 79% 30.61 in 10.0 mi WNW 3.5 mph - N/A   Clear
7:15 PM 10.4 °F 4.0 °F 3.2 °F 73% 30.61 in 10.0 mi NW 3.5 mph - N/A   Clear
7:35 PM 8.6 °F 2.0 °F 3.2 °F 79% 30.62 in 10.0 mi NW 3.5 mph - N/A   Clear
7:55 PM 8.6 °F 2.0 °F 3.2 °F 79% 30.62 in 10.0 mi NW 3.5 mph - N/A   Clear
8:15 PM 8.6 °F 0.1 °F 3.2 °F 79% 30.62 in 10.0 mi NW 4.6 mph - N/A   Clear
8:35 PM 8.6 °F 0.1 °F 1.4 °F 73% 30.62 in 10.0 mi NW 4.6 mph - N/A   Clear
8:55 PM 8.6 °F 2.0 °F 1.4 °F 73% 30.62 in 10.0 mi NW 3.5 mph - N/A   Clear
9:15 PM 8.6 °F - 1.4 °F 73% 30.62 in 10.0 mi Calm Calm - N/A   Clear
9:35 PM 6.8 °F -0.1 °F 1.4 °F 79% 30.62 in 10.0 mi NW 3.5 mph - N/A   Clear
9:55 PM 5.0 °F - -0.4 °F 78% 30.63 in 10.0 mi Calm Calm - N/A   Scattered Clouds
10:15 PM 5.0 °F -2.1 °F -0.4 °F 78% 30.63 in 10.0 mi West 3.5 mph - N/A   Scattered Clouds
10:35 PM 6.8 °F - -0.4 °F 72% 30.62 in 10.0 mi Calm Calm - N/A   Mostly Cloudy
10:55 PM 6.8 °F - 1.4 °F 79% 30.62 in 10.0 mi Calm Calm - N/A   Overcast
11:15 PM 6.8 °F - -0.4 °F 72% 30.62 in 10.0 mi Calm Calm - N/A   Overcast
11:35 PM 6.8 °F - 1.4 °F 79% 30.61 in 10.0 mi Calm Calm - N/A   Scattered Clouds
11:55 PM 5.0 °F - 1.4 °F 85% 30.61 in 10.0 mi Calm Calm - N/A   Clear